Wetbulb
58.61 58.73 58.73 58.74 58.77 58.79 59.07 59.08 59.05 58.91 58.49 58.63 59.17 59.47 59.89 60.36 60.49 56.17 51.03 57.27 59.85 63.61 64.17 57.84 55.51 53.06 52.98 49.20 49.95 48.71 40.09 36.19 37.38 38.96 39.72 43.12 42.30 45.26 45.65 42.00 43.09 45.21 45.09 46.28 48.11
58.27 58.28 58.21 58.25 58.32 58.51 58.67 58.78 58.82 58.81 58.37 58.32 58.70 58.97 59.68 59.79 55.86 52.12 58.76 62.04 62.55 63.19 55.62 51.24 49.51 51.02 47.15 47.02 46.84 44.40 39.07 39.23 42.86 41.63 40.28 42.55 42.82 43.62 41.45 39.69 39.30 40.96 44.48 45.40 45.03
57.89 57.83 57.59 57.80 57.85 58.17 58.37 58.57 58.83 58.89 58.50 58.35 58.51 59.05 59.41 58.07 52.21 50.53 61.68 61.80 62.45 62.90 55.26 52.97 51.88 50.65 45.38 46.26 44.39 43.06 39.88 42.65 43.94 45.42 45.84 43.00 41.07 41.70 39.69 36.01 36.71 37.29 39.89 41.27 41.07
57.57 57.46 57.22 57.37 57.46 57.83 58.24 58.34 58.64 58.81 58.27 57.98 58.58 59.43 58.57 55.82 42.37 52.47 63.22 63.29 64.60 60.71 54.37 51.57 48.89 44.86 42.87 42.23 45.87 40.99 44.66 45.12 45.20 45.96 44.85 41.60 41.95 36.87 37.16 36.70 39.85 38.81 39.48 39.06 37.52
57.19 56.95 56.75 56.85 57.18 57.54 57.84 57.91 58.31 58.62 58.27 57.79 58.94 59.08 55.04 48.24 47.55 55.41 61.48 58.85 56.20 54.77 50.97 49.16 45.98 44.61 41.60 42.82 44.61 41.64 43.00 44.80 44.46 43.06 41.32 42.25 38.75 36.42 35.62 38.56 39.34 39.02 37.68 36.09 35.75
56.64 56.37 56.12 56.38 56.91 57.32 57.38 57.53 58.12 58.35 58.24 58.29 58.96 57.93 50.54 42.28 54.40 55.24 54.47 54.26 53.57 52.45 49.74 49.01 46.36 46.70 43.64 43.37 42.73 43.94 43.93 43.22 43.80 42.92 41.95 38.52 37.40 39.16 36.68 38.82 37.67 36.60 34.61 34.52 34.42
56.11 55.67 55.52 55.83 56.49 56.87 56.97 57.07 57.52 58.01 58.01 57.79 58.74 54.90 47.53 46.47 53.67 53.42 53.31 51.94 52.53 51.85 49.28 49.85 48.76 46.17 44.77 41.78 45.68 44.51 40.23 41.60 41.56 42.11 41.48 40.86 36.71 34.62 37.74 38.93 36.03 35.06 33.68 33.79 33.85
55.63 55.26 55.07 55.35 55.89 56.29 56.20 56.48 56.99 57.26 57.06 57.57 58.41 50.72 43.24 53.73 51.43 52.66 52.68 51.53 52.31 52.78 51.20 50.20 49.60 46.38 44.39 44.28 43.24 38.96 38.19 33.03 40.61 42.21 41.52 39.78 31.73 35.41 38.09 37.00 33.62 33.91 33.07 32.62 32.96
55.13 54.75 54.65 55.01 55.48 55.75 56.14 55.87 56.64 56.55 56.68 57.36 49.83 47.31 42.47 55.17 50.08 51.60 50.85 50.06 50.93 50.92 50.36 50.98 47.91 42.73 42.21 36.82 32.67 34.05 28.55 32.19 37.12 42.82 40.82 38.02 31.70 35.69 38.00 37.21 34.35 33.00 31.51 31.58 31.40
54.50 54.05 53.99 54.58 55.19 55.88 55.96 55.20 55.87 53.85 53.82 52.18 49.13 43.64 46.03 45.77 49.08 50.28 50.40 51.10 48.37 47.51 47.97 45.47 41.39 37.24 36.12 33.01 27.44 29.53 29.32 32.44 34.01 39.41 39.83 36.63 33.46 34.68 36.53 36.42 33.95 32.15 30.80 30.24 30.34
54.02 53.56 53.72 54.38 54.99 55.51 51.97 48.06 45.79 44.92 45.88 41.47 42.95 43.42 46.53 49.78 51.02 48.97 50.29 48.84 47.67 43.33 37.69 40.43 34.87 30.83 34.75 36.04 35.79 32.87 31.30 30.81 35.70 40.63 38.20 36.22 35.35 34.08 35.33 34.27 30.64 29.44 28.61 28.64 29.70
53.45 53.10 53.49 54.18 53.93 55.07 50.26 44.86 45.08 45.93 39.82 46.27 45.97 46.18 48.17 48.27 44.37 46.52 48.66 43.37 42.04 37.41 38.53 35.50 32.03 37.19 40.72 39.40 37.02 34.85 31.68 31.42 35.91 38.92 36.95 34.62 35.06 34.63 34.23 32.92 31.54 29.68 27.36 28.06 28.71
52.82 52.71 53.29 53.50 53.46 49.90 46.21 45.93 50.31 48.49 40.59 43.25 46.02 45.38 45.64 47.35 43.13 43.45 45.69 43.69 40.05 37.87 36.88 33.43 37.08 41.25 39.86 37.06 36.07 33.61 30.90 30.96 31.99 35.36 35.49 32.03 28.97 30.20 31.80 31.16 29.61 28.44 27.99 28.33 27.59
52.31 52.28 53.09 52.66 48.73 44.03 43.90 49.54 50.53 48.92 34.33 38.71 42.50 44.02 46.14 46.28 41.70 47.05 45.20 43.40 40.02 36.88 36.55 34.97 39.24 39.01 36.84 36.53 36.31 30.88 34.52 34.76 33.79 29.43 24.01 31.15 21.37 27.36 28.80 27.04 26.48 24.40 24.57 25.28 26.38
51.80 52.00 52.47 51.90 43.86 43.50 46.69 49.71 49.13 45.30 23.27 40.63 41.08 47.74 44.61 42.22 42.77 43.53 45.48 42.66 37.45 38.07 35.90 33.88 35.08 34.60 35.10 35.43 36.33 33.54 36.17 33.65 32.74 28.24 24.94 27.40 23.37 23.57 27.55 23.95 24.61 23.12 23.53 24.68 25.83
51.31 51.51 52.21 46.60 44.86 45.49 49.48 49.06 46.47 35.41 22.89 35.83 41.11 39.77 38.57 40.00 40.55 42.47 42.05 41.95 40.45 36.79 35.94 34.23 37.88 36.61 35.75 37.40 36.59 37.29 33.03 31.74 29.99 27.02 20.24 25.98 25.55 21.92 24.70 27.27 26.30 24.45 24.77 25.84 26.03
50.80 50.93 49.05 46.92 42.69 47.19 47.55 43.76 34.30 25.88 36.35 34.70 35.43 38.03 37.25 36.17 37.17 37.64 36.68 33.26 32.15 27.83 27.83 32.56 33.37 36.11 37.93 33.05 35.42 33.23 28.01 22.28 21.16 20.14 20.66 26.90 23.93 22.65 24.60 25.76 28.11 23.95 23.88 24.87 25.29
50.56 50.06 48.47 47.72 47.52 47.14 43.56 36.37 26.53 35.25 32.56 38.16 37.69 37.14 33.87 35.79 34.50 35.62 33.04 30.29 32.23 30.95 27.21 25.87 25.50 33.34 35.59 32.71 31.19 30.38 29.01 22.81 21.20 20.22 21.56 26.68 22.04 20.90 24.42 25.82 26.50 26.16 25.19 25.83 24.73
49.95 43.87 43.36 43.77 46.66 44.08 38.27 27.83 29.90 34.99 37.61 36.17 35.72 31.57 31.77 34.78 33.49 32.00 30.97 31.13 31.27 30.91 28.06 25.87 27.93 32.13 33.05 32.73 32.55 29.91 26.47 30.08 24.64 21.80 18.30 21.30 18.16 22.18 23.81 23.19 23.87 23.82 24.32 23.15 23.79
40.45 40.56 42.21 45.08 45.69 41.57 34.32 33.28 34.48 37.78 37.87 37.49 31.67 33.72 30.02 31.48 29.91 30.19 30.95 31.16 31.64 31.82 30.68 27.86 24.04 29.42 31.19 31.78 31.61 29.97 31.33 23.88 22.18 16.98 16.91 19.56 20.86 21.60 19.10 20.33 22.25 22.30 22.07 22.21 22.25
40.30 35.55 41.63 45.34 43.39 37.40 28.62 30.95 35.88 38.94 39.36 35.88 33.48 32.52 31.96 31.96 30.97 29.64 30.01 30.39 31.83 30.23 29.98 27.87 26.35 24.29 27.98 26.42 26.23 25.96 25.00 25.55 24.66 21.84 16.90 15.29 18.71 21.78 22.02 22.25 21.31 21.30 20.79 19.89 20.05
41.61 33.21 42.41 43.42 33.09 31.73 30.94 35.14 38.84 36.67 37.97 37.17 35.13 33.92 31.32 31.91 30.47 29.24 29.94 29.11 31.79 32.26 28.21 28.31 26.13 21.42 24.32 25.06 26.60 25.56 26.20 25.76 19.63 20.20 20.57 18.96 18.21 21.27 19.23 21.29 20.83 19.01 19.49 19.56 19.68
37.74 39.05 43.97 43.47 30.62 30.11 32.41 35.75 37.13 35.99 36.23 36.11 34.93 35.21 33.50 32.14 28.47 30.28 28.99 31.57 32.12 30.98 28.58 29.04 23.54 17.99 20.90 21.66 24.28 22.62 24.63 25.24 23.25 20.75 18.52 14.43 20.28 20.14 19.08 17.88 18.10 16.11 15.51 17.87 18.84
37.93 34.09 39.02 39.43 37.43 35.54 32.93 33.98 32.80 36.11 35.99 36.23 34.64 34.84 32.37 30.67 31.71 29.65 28.44 30.01 30.46 30.88 34.74 31.90 23.76 22.69 20.16 22.39 23.87 21.64 23.42 24.26 22.57 14.37 19.48 21.61 23.76 15.09 15.60 15.22 14.78 15.32 14.63 13.83 13.85
37.90 34.98 38.18 32.13 32.91 34.31 36.36 34.99 32.27 30.82 34.06 34.73 31.36 32.94 31.67 28.37 29.17 28.95 28.76 27.03 29.06 33.02 28.76 27.30 21.03 21.17 23.04 24.84 24.05 24.08 23.93 23.31 21.01 22.17 18.44 22.11 20.62 11.33 12.85 11.85 10.29 11.92 14.44 17.08 17.10
35.61 35.62 37.53 33.25 35.70 34.48 36.01 33.28 33.28 32.70 31.82 30.37 30.48 32.72 31.96 29.47 30.37 27.75 28.80 26.53 26.43 26.04 25.85 25.88 20.87 21.03 19.92 24.12 21.15 21.05 22.66 22.84 24.10 22.17 19.62 18.03 12.59 6.37 10.93 11.52 13.51 14.32 16.07 17.01 16.29
38.54 38.46 38.45 35.97 33.32 32.69 32.37 33.48 33.77 34.06 31.83 32.78 33.27 31.50 30.74 31.80 29.36 27.86 26.64 27.33 28.02 25.59 24.26 22.19 20.64 18.84 16.03 19.51 19.72 16.79 18.59 19.97 19.48 16.38 14.97 13.58 10.40 8.52 12.68 15.65 12.41 13.88 15.81 15.52 16.03
MSLP
1020.68 1020.28 1019.93 1019.67 1019.46 1019.39 1019.19 1018.86 1018.69 1018.40 1018.14 1017.97 1017.77 1017.53 1017.26 1017.20 1016.73 1016.68 1017.47 1017.79 1017.35 1016.66 1016.09 1015.45 1015.04 1014.80 1014.68 1014.93 1015.02 1015.35 1016.51 1017.43 1017.57 1017.82 1018.25 1018.47 1019.48 1021.16 1022.40 1023.10 1024.03 1025.01 1025.70 1026.65 1026.36
1020.63 1020.31 1020.00 1019.77 1019.52 1019.38 1019.05 1018.86 1018.71 1018.48 1018.20 1018.01 1017.76 1017.49 1017.41 1017.35 1017.06 1017.41 1017.87 1017.34 1017.04 1016.64 1016.29 1015.96 1015.54 1015.21 1015.15 1015.16 1015.45 1015.93 1017.09 1017.67 1017.69 1017.68 1018.87 1019.50 1020.19 1021.55 1023.01 1024.30 1025.71 1026.24 1026.82 1027.01 1027.18
1020.66 1020.27 1020.11 1019.81 1019.55 1019.33 1019.13 1018.90 1018.63 1018.46 1018.31 1018.08 1017.78 1017.58 1017.43 1017.29 1017.33 1017.86 1017.50 1017.13 1016.78 1016.55 1016.45 1016.23 1015.81 1015.60 1015.45 1015.51 1015.89 1016.31 1017.32 1017.68 1018.11 1018.14 1018.81 1020.11 1021.40 1022.45 1023.78 1025.40 1026.28 1026.99 1027.58 1027.96 1028.12
1020.64 1020.34 1020.13 1019.88 1019.62 1019.42 1019.17 1018.96 1018.64 1018.44 1018.32 1018.07 1017.79 1017.58 1017.41 1017.31 1018.11 1017.87 1017.32 1016.99 1016.59 1016.29 1016.29 1016.07 1015.94 1015.80 1015.84 1016.15 1016.17 1017.09 1017.88 1018.05 1018.75 1018.92 1019.53 1020.78 1022.00 1023.74 1024.80 1026.23 1026.87 1027.53 1028.13 1028.68 1029.10
1020.71 1020.44 1020.17 1019.98 1019.73 1019.44 1019.17 1018.98 1018.57 1018.28 1018.13 1017.99 1017.80 1017.58 1017.36 1017.60 1018.15 1017.69 1017.39 1017.02 1016.50 1016.36 1016.37 1016.34 1016.28 1016.23 1016.36 1016.48 1016.82 1017.57 1018.37 1018.85 1019.39 1019.68 1020.73 1021.40 1023.11 1024.44 1026.12 1026.67 1027.23 1027.93 1028.60 1029.23 1029.72
1020.74 1020.47 1020.25 1020.09 1019.78 1019.43 1019.11 1018.80 1018.46 1018.21 1018.06 1017.97 1017.82 1017.62 1017.56 1017.97 1018.03 1017.67 1017.49 1017.22 1016.96 1016.77 1016.72 1016.67 1016.82 1016.73 1016.81 1017.08 1017.36 1017.95 1018.68 1019.47 1019.91 1020.48 1021.28 1022.51 1023.99 1024.22 1026.60 1026.89 1027.68 1028.34 1029.18 1029.75 1030.18
1020.83 1020.46 1020.25 1020.01 1019.73 1019.36 1019.01 1018.71 1018.41 1018.25 1018.12 1017.88 1017.77 1017.55 1017.75 1018.23 1017.90 1017.64 1017.43 1017.24 1017.05 1017.05 1017.00 1017.00 1017.01 1016.83 1017.12 1017.57 1017.73 1018.49 1019.39 1019.88 1020.39 1020.89 1021.63 1022.44 1024.24 1025.24 1026.19 1026.93 1027.84 1028.67 1029.49 1030.14 1030.66
1020.98 1020.51 1020.28 1019.89 1019.65 1019.28 1018.88 1018.60 1018.37 1018.18 1017.97 1017.78 1017.69 1017.61 1018.04 1017.86 1017.84 1017.64 1017.38 1017.16 1017.03 1017.00 1017.04 1016.98 1016.91 1017.04 1017.46 1017.90 1018.26 1018.86 1019.54 1020.21 1020.26 1020.83 1021.72 1022.35 1024.32 1025.76 1026.32 1027.13 1028.32 1029.18 1029.91 1030.50 1030.99
1021.18 1020.67 1020.29 1019.87 1019.55 1019.16 1018.70 1018.37 1018.22 1018.01 1017.77 1017.60 1017.61 1017.58 1018.20 1017.88 1017.95 1017.81 1017.63 1017.55 1017.30 1017.10 1017.02 1016.93 1016.99 1017.68 1018.08 1018.55 1019.11 1019.30 1019.65 1019.92 1020.27 1020.48 1021.41 1022.46 1024.30 1025.27 1025.87 1026.67 1027.69 1028.73 1029.75 1030.55 1031.21
1021.46 1020.93 1020.37 1019.81 1019.42 1018.95 1018.50 1018.21 1017.84 1017.67 1017.56 1017.45 1017.47 1017.97 1018.31 1018.18 1018.07 1018.02 1017.73 1017.56 1017.46 1017.29 1017.32 1017.33 1017.65 1018.29 1018.70 1019.02 1019.45 1019.30 1019.51 1019.32 1019.84 1020.43 1021.16 1022.39 1023.67 1024.90 1025.65 1026.66 1027.80 1029.06 1030.15 1030.91 1031.46
1021.54 1021.07 1020.38 1019.80 1019.37 1018.98 1018.40 1018.07 1018.45 1018.47 1018.31 1018.40 1018.38 1018.28 1018.24 1018.21 1018.14 1018.12 1017.98 1017.84 1017.59 1017.71 1017.89 1017.88 1018.50 1018.78 1018.57 1018.62 1018.60 1018.76 1019.08 1019.34 1019.41 1019.66 1020.69 1021.89 1023.14 1024.15 1025.50 1026.87 1028.33 1029.49 1030.50 1031.30 1031.80
1021.60 1021.11 1020.49 1019.85 1019.20 1018.82 1018.83 1019.03 1019.45 1019.76 1019.29 1018.59 1018.37 1018.36 1018.35 1018.43 1018.43 1018.33 1018.15 1018.21 1017.97 1018.05 1018.03 1018.66 1018.78 1018.70 1018.62 1018.59 1018.62 1018.70 1018.96 1019.25 1019.54 1019.79 1020.75 1021.79 1022.90 1023.85 1025.62 1027.05 1028.37 1029.55 1030.62 1031.25 1031.78
1021.56 1021.07 1020.44 1019.81 1019.15 1018.91 1019.14 1019.75 1019.72 1019.78 1019.57 1018.92 1018.45 1018.28 1018.46 1018.65 1018.66 1018.64 1018.55 1018.34 1018.13 1018.11 1018.37 1018.69 1018.84 1018.64 1018.59 1018.55 1018.71 1018.92 1019.33 1019.57 1020.01 1020.49 1020.89 1021.99 1023.21 1024.55 1026.24 1027.34 1028.31 1029.49 1030.31 1031.01 1031.62
1021.54 1021.02 1020.41 1019.81 1019.70 1019.47 1019.75 1019.80 1019.75 1019.88 1019.84 1019.14 1018.63 1018.46 1018.52 1018.49 1018.82 1018.78 1018.75 1018.75 1018.36 1018.44 1018.53 1018.89 1018.98 1018.94 1018.99 1019.06 1019.15 1019.72 1019.93 1020.16 1020.59 1021.42 1022.20 1022.56 1024.08 1025.11 1026.21 1027.70 1028.96 1030.03 1030.70 1031.54 1032.00
1021.48 1020.98 1020.49 1020.26 1020.21 1020.01 1020.27 1019.89 1019.77 1020.00 1020.41 1018.96 1018.57 1018.38 1018.36 1018.71 1018.86 1018.81 1018.80 1018.65 1018.63 1018.68 1019.02 1019.39 1019.39 1019.48 1019.65 1019.78 1019.61 1020.07 1020.32 1020.76 1021.32 1022.19 1023.07 1023.25 1024.91 1025.39 1026.77 1028.32 1029.33 1030.49 1031.32 1032.00 1032.35
1021.34 1020.88 1020.47 1020.06 1020.34 1020.41 1020.23 1020.12 1020.12 1020.32 1019.26 1018.64 1018.48 1018.46 1018.60 1018.60 1018.75 1018.86 1018.95 1018.90 1019.03 1019.15 1019.35 1019.73 1019.76 1019.89 1020.07 1020.27 1020.28 1020.50 1020.88 1021.52 1022.15 1023.21 1024.03 1023.36 1024.93 1025.92 1027.10 1027.93 1029.26 1030.77 1031.59 1032.14 1032.57
1020.96 1020.78 1020.67 1020.35 1020.51 1020.29 1020.46 1020.65 1020.63 1020.04 1018.66 1018.55 1018.30 1018.38 1018.38 1018.67 1018.89 1018.98 1019.15 1019.32 1019.50 1019.96 1020.28 1020.30 1020.40 1020.44 1020.43 1020.80 1020.95 1021.21 1021.83 1022.77 1023.82 1024.40 1023.96 1023.90 1025.56 1026.12 1027.60 1028.22 1028.80 1030.52 1031.78 1032.41 1032.92
1020.66 1020.67 1020.41 1020.29 1020.30 1020.39 1020.77 1020.95 1020.37 1018.41 1018.08 1017.90 1017.91 1018.25 1018.55 1018.55 1018.88 1019.20 1019.53 1019.88 1019.95 1020.07 1020.75 1020.96 1021.08 1021.02 1020.94 1021.19 1021.34 1021.79 1022.26 1023.17 1023.85 1024.55 1024.52 1024.65 1025.89 1027.26 1028.66 1029.10 1029.64 1030.93 1031.96 1032.58 1033.15
1020.45 1020.36 1020.49 1020.31 1020.28 1020.68 1020.84 1020.92 1019.15 1018.14 1017.54 1017.87 1018.22 1018.34 1018.50 1018.63 1018.95 1019.39 1019.74 1020.13 1020.33 1020.52 1021.06 1021.40 1021.57 1021.70 1021.81 1021.90 1022.05 1022.29 1022.67 1023.12 1024.03 1024.67 1025.18 1025.06 1026.85 1028.29 1029.30 1030.37 1031.02 1031.77 1032.38 1033.16 1033.63
1020.85 1020.62 1020.12 1019.89 1020.12 1020.74 1020.87 1019.96 1018.64 1017.95 1017.68 1017.81 1018.05 1017.86 1018.37 1018.78 1019.29 1019.64 1019.86 1020.41 1020.89 1021.20 1021.33 1021.59 1022.12 1022.42 1022.58 1022.66 1022.73 1022.76 1023.23 1023.74 1024.82 1025.63 1025.86 1025.35 1026.33 1027.69 1029.66 1030.78 1031.72 1032.44 1033.12 1033.66 1034.08
1021.19 1020.93 1019.78 1019.73 1020.14 1020.57 1020.62 1019.50 1018.56 1018.22 1017.98 1018.09 1017.92 1017.86 1018.03 1018.52 1019.13 1019.62 1020.11 1021.24 1021.34 1021.85 1021.94 1022.11 1022.46 1023.54 1023.35 1023.38 1023.28 1023.76 1023.74 1024.21 1025.02 1025.88 1026.61 1026.98 1027.02 1028.14 1029.37 1030.72 1031.99 1032.99 1033.69 1034.17 1034.42
1021.20 1021.12 1019.88 1019.98 1020.42 1019.78 1019.69 1018.57 1018.38 1018.40 1018.39 1018.35 1018.25 1018.09 1018.17 1018.48 1019.13 1019.83 1020.61 1021.42 1021.76 1022.04 1022.42 1022.67 1023.16 1023.76 1023.54 1023.66 1023.61 1023.59 1023.77 1024.24 1025.57 1026.18 1026.56 1027.40 1027.51 1029.16 1030.22 1031.09 1032.42 1033.89 1034.42 1034.60 1034.74
1021.93 1020.98 1020.02 1019.82 1019.63 1019.47 1018.80 1018.58 1018.44 1018.57 1018.58 1018.64 1018.58 1018.43 1018.57 1018.79 1019.49 1020.13 1021.20 1022.26 1022.41 1022.61 1022.80 1023.08 1023.66 1024.02 1024.02 1024.46 1024.19 1023.99 1023.99 1024.26 1025.20 1026.13 1026.64 1028.25 1028.36 1030.09 1031.19 1032.46 1033.74 1034.49 1034.70 1034.86 1035.10
1022.31 1021.66 1020.58 1019.83 1018.97 1018.39 1018.44 1018.47 1018.71 1018.72 1018.70 1018.72 1018.87 1018.90 1019.18 1019.38 1019.69 1020.69 1021.95 1022.81 1023.14 1023.28 1023.42 1023.60 1024.02 1023.82 1023.53 1023.32 1023.49 1024.35 1024.40 1024.59 1025.36 1026.42 1026.28 1026.89 1028.29 1031.04 1032.46 1033.66 1034.41 1034.79 1035.15 1035.29 1035.30
1022.00 1021.50 1020.34 1019.88 1019.05 1018.11 1017.59 1017.81 1018.36 1018.94 1019.12 1019.08 1019.35 1019.15 1019.34 1020.05 1020.52 1021.30 1022.39 1023.41 1023.86 1023.97 1024.19 1024.60 1024.89 1024.50 1024.13 1024.13 1024.18 1024.43 1024.87 1025.36 1025.79 1025.78 1027.22 1027.27 1029.70 1031.56 1033.18 1034.39 1034.89 1035.01 1035.25 1035.29 1035.32
1021.38 1021.63 1020.69 1019.89 1018.60 1018.10 1017.99 1017.95 1017.96 1018.39 1018.79 1019.25 1019.34 1018.95 1019.53 1020.19 1020.53 1021.40 1022.19 1023.28 1023.67 1024.71 1025.06 1025.29 1025.39 1025.43 1025.13 1024.83 1025.01 1025.44 1025.73 1025.93 1026.23 1026.92 1027.83 1029.21 1031.12 1032.74 1033.84 1034.40 1034.95 1035.14 1035.23 1035.23 1035.15
1021.27 1021.41 1021.15 1020.26 1019.41 1018.80 1018.15 1017.61 1017.63 1018.00 1018.91 1018.74 1018.91 1019.34 1020.07 1020.60 1021.13 1021.97 1022.59 1023.07 1023.41 1024.27 1025.29 1025.91 1026.16 1026.69 1026.31 1026.26 1026.66 1026.74 1026.31 1026.54 1027.31 1028.24 1029.26 1030.74 1031.62 1032.92 1034.07 1034.73 1035.26 1035.05 1035.18 1035.33 1035.21
Wind_Speed
9 10 11 10 10 9 10 11 10 10 9 9 9 9 10 11 11 3 6 6 8 16 16 8 2 4 2 1 2 3 5 2 2 7 6 5 6 5 7 13 7 7 9 8 12
10 10 10 10 10 10 11 10 10 9 9 8 8 9 8 9 1 8 4 10 12 12 7 9 6 8 3 2 4 5 5 4 6 5 5 6 7 6 6 5 7 8 11 12 13
10 11 10 11 11 10 10 9 9 9 8 8 8 8 8 6 3 4 10 12 11 8 4 4 5 1 2 4 3 3 4 3 7 10 7 5 5 3 6 6 3 7 8 10 13
11 11 11 11 11 11 10 9 8 7 7 7 7 8 8 2 2 3 11 13 13 8 5 3 3 2 3 3 1 6 8 5 5 5 6 5 6 7 6 5 8 10 9 11 13
12 12 13 13 12 11 11 10 8 6 6 7 8 8 1 5 1 5 9 11 7 7 4 4 5 3 3 4 4 5 2 7 6 12 8 10 6 8 6 9 12 14 13 12 11
12 13 13 13 13 13 12 11 9 6 6 6 6 7 2 2 3 6 6 5 7 5 5 6 3 1 3 4 4 4 7 6 4 5 5 9 5 6 4 8 13 13 11 11 11
12 12 12 13 14 14 13 11 9 7 5 6 6 2 6 2 4 7 6 2 3 3 2 3 4 4 2 3 2 8 6 3 3 4 4 9 3 3 8 10 13 13 11 11 10
13 13 13 12 13 13 12 11 8 7 7 6 5 1 2 2 2 4 7 2 4 2 1 4 4 3 4 2 4 2 5 2 4 8 4 3 3 5 8 11 9 11 10 11 9
14 14 14 14 13 12 11 10 7 8 7 7 2 3 1 0 1 3 2 2 6 1 2 3 2 3 3 5 4 1 3 5 3 8 6 4 3 8 10 12 12 12 11 11 10
14 14 13 14 15 13 11 5 6 7 1 2 2 4 1 1 2 4 3 3 1 3 3 2 4 3 3 4 4 4 3 3 5 7 5 6 4 8 10 9 10 10 10 10 9
16 15 16 15 13 11 7 3 5 5 8 2 1 2 2 1 2 1 3 5 1 2 2 1 5 4 5 5 4 2 1 2 1 5 6 8 5 15 11 6 9 8 10 9 10
16 17 16 16 16 10 1 5 3 2 1 1 0 3 1 1 1 4 7 0 2 2 2 6 2 2 3 3 3 2 1 4 2 1 2 3 8 5 10 4 9 11 10 11 9
16 17 17 17 15 5 4 3 1 2 2 1 0 2 1 1 1 3 4 2 1 4 4 4 3 2 1 2 2 1 2 2 1 2 4 2 6 5 4 7 9 8 8 9 10
16 17 17 18 3 2 2 1 2 0 4 3 2 1 0 1 1 1 1 1 0 3 2 2 1 1 1 0 2 1 2 1 2 4 3 2 7 3 9 8 8 9 8 8 9
14 16 15 9 3 3 0 1 2 3 4 3 3 0 2 2 3 2 1 0 3 3 4 3 2 1 1 1 2 3 1 1 1 1 2 4 0 2 9 5 7 7 8 8 7
13 14 15 3 2 1 3 4 3 7 8 4 4 4 2 2 2 2 1 1 0 2 3 2 1 2 3 1 2 3 0 3 3 3 2 7 8 5 6 2 7 6 9 9 7
12 13 8 2 2 2 2 3 6 5 1 4 5 4 3 5 3 4 3 1 4 5 3 2 2 1 2 3 3 2 5 3 5 2 7 2 3 1 5 5 9 15 10 8 7
10 10 4 1 1 2 3 5 3 4 6 2 3 3 5 5 2 3 3 2 2 2 3 5 6 6 1 1 6 4 5 6 6 4 5 6 7 1 4 8 14 13 10 8 7
10 1 1 3 2 3 5 3 8 5 4 8 3 3 3 2 2 3 5 5 3 2 7 5 4 2 4 3 1 3 4 2 0 2 1 5 2 1 3 6 9 9 8 7 6
2 2 3 4 4 4 4 6 4 1 1 4 6 5 6 5 4 5 6 1 4 3 3 1 1 1 1 2 1 1 1 3 2 3 6 6 5 4 8 8 7 7 7 6 6
2 1 2 4 3 4 5 8 2 2 2 3 3 4 4 6 7 4 3 3 2 2 3 1 3 1 2 4 6 2 2 1 3 5 5 5 5 2 8 10 10 6 6 6 5
2 3 2 3 3 3 5 4 3 4 1 1 1 1 2 5 4 3 5 1 1 6 5 2 4 4 8 1 0 1 6 6 6 5 5 3 5 2 6 6 11 6 5 4 3
1 4 1 1 4 4 2 2 2 4 5 5 4 2 1 5 3 4 4 2 1 2 5 4 2 1 3 1 2 4 4 4 5 4 7 3 7 4 6 8 6 6 2 2 5
3 2 3 1 3 4 6 5 6 1 2 2 4 3 3 3 1 5 4 2 1 2 3 1 3 7 8 3 6 5 5 6 7 4 5 12 12 6 5 7 3 2 1 4 5
3 4 3 3 6 5 6 7 6 6 2 4 1 5 7 6 4 5 4 2 1 2 1 4 5 3 4 5 3 7 7 8 10 9 10 8 6 4 6 6 4 3 3 6 6
6 3 2 4 5 10 6 6 10 5 9 6 5 9 7 6 7 8 8 6 6 3 5 1 3 0 4 6 1 5 10 11 14 5 7 3 5 5 3 3 4 3 4 5 4
1 2 1 3 5 3 3 6 9 9 2 2 8 5 7 4 5 5 4 5 7 9 8 6 4 3 5 3 6 9 13 7 3 3 4 6 6 5 4 4 3 5 4 2 5
Wind_Direction
6 10 12 12 12 4 360 3 360 357 358 354 356 1 358 340 308 18 43 310 320 321 322 281 310 326 355 345 353 52 59 84 57 145 165 163 99 24 57 78 47 47 63 62 34
3 7 9 8 6 359 0 358 355 352 353 350 353 358 349 344 50 61 309 330 328 330 349 8 355 351 22 4 11 73 76 43 303 118 98 62 77 122 78 57 65 77 64 54 46
359 6 3 5 359 355 352 352 351 348 349 343 352 345 339 336 83 356 341 335 326 319 282 306 289 253 64 48 1 35 126 131 5 106 120 97 66 48 135 66 78 112 89 68 59
359 1 1 0 352 346 345 345 342 342 343 341 346 340 335 316 161 329 343 328 315 306 303 302 318 336 89 100 353 92 28 75 360 11 73 79 99 65 37 101 103 86 80 81 68
358 358 359 354 345 341 339 333 330 338 339 340 337 350 355 55 84 316 335 333 345 345 10 352 29 23 75 92 52 87 122 55 95 81 71 71 63 117 92 109 94 87 76 75 76
356 358 356 349 343 340 338 332 326 324 323 321 334 328 28 97 271 321 319 345 355 20 16 28 27 16 82 66 75 106 98 117 71 75 94 109 152 83 171 128 103 96 90 83 78
351 355 353 350 343 339 336 330 322 309 303 313 339 320 63 167 314 319 337 266 341 16 46 1 342 49 22 79 36 131 97 108 146 163 133 127 96 70 150 128 119 111 104 93 83
347 349 346 349 340 334 329 323 309 297 303 314 333 18 88 227 315 347 350 43 3 26 47 295 346 72 69 97 53 101 90 140 197 162 180 85 243 168 163 134 130 122 111 101 91
344 346 342 342 335 328 321 311 290 300 293 299 11 111 17 49 10 317 349 338 303 284 316 295 33 105 54 95 37 330 207 192 165 188 144 156 188 187 183 156 154 141 132 118 104
341 338 337 336 330 325 314 280 293 329 245 268 283 51 263 170 332 317 323 292 343 341 14 51 53 80 37 86 192 219 229 244 192 196 164 179 199 183 190 167 150 136 122 110 102
339 337 334 333 325 328 343 8 25 3 36 79 357 119 79 41 72 34 335 348 286 37 126 344 81 180 233 186 184 171 236 278 228 177 139 203 195 201 186 153 137 128 123 118 111
338 335 333 331 326 317 252 79 129 161 52 280 182 86 70 64 131 350 15 81 155 167 115 28 165 216 144 114 109 67 278 277 54 61 138 235 250 167 167 133 151 144 136 133 128
336 334 332 332 329 351 76 103 327 5 123 209 157 100 176 39 55 322 3 331 166 152 169 154 201 200 191 141 139 212 219 318 161 195 258 39 296 119 114 101 105 102 125 126 127
335 334 331 327 15 295 57 101 341 329 69 219 228 241 155 3 245 291 357 165 6 143 102 108 222 184 138 226 128 223 348 15 30 67 240 127 279 180 169 150 128 142 128 120 111
333 332 329 346 284 54 327 303 306 53 15 150 181 102 158 174 146 239 234 116 124 144 104 239 135 122 178 297 335 193 58 89 65 143 33 258 95 323 122 208 177 154 126 116 117
329 333 333 33 50 291 334 346 53 47 261 175 150 184 144 190 201 147 282 41 130 86 87 128 197 88 144 97 77 173 311 39 53 86 321 229 167 214 188 219 162 128 130 126 124
331 331 330 314 240 235 23 41 47 142 322 199 198 176 215 177 174 183 178 166 164 99 215 135 176 157 151 132 2 73 60 340 345 349 233 267 137 16 3 337 161 142 135 131 109
324 325 288 135 218 83 67 50 204 226 200 138 132 146 186 152 184 173 156 201 280 105 125 165 301 170 197 178 172 176 159 162 255 227 271 342 249 102 29 55 98 113 127 119 108
323 292 238 223 181 81 85 102 212 221 142 147 65 167 223 195 191 160 203 198 160 162 175 159 268 52 42 10 87 203 174 173 206 287 344 226 84 282 94 76 103 124 127 124 106
14 317 230 178 128 79 87 230 227 157 92 127 201 167 185 195 164 178 188 161 152 54 49 112 242 39 319 2 343 132 205 77 12 270 267 281 227 212 196 186 166 161 141 114 78
32 349 242 137 81 64 187 226 188 63 64 170 221 181 176 171 178 210 197 15 58 92 58 41 117 325 53 205 186 107 248 128 130 164 205 293 244 300 196 181 179 157 119 100 69
328 255 213 108 108 198 188 201 156 160 84 211 202 112 125 158 172 229 197 187 339 159 158 177 142 203 219 190 286 169 190 156 150 235 231 214 255 82 83 112 120 114 99 63 16
108 289 304 194 188 225 241 159 176 149 186 182 175 164 184 175 191 160 146 264 31 145 170 182 211 4 291 329 330 212 206 179 117 97 211 163 263 153 112 94 104 119 94 330 311
122 244 284 210 272 191 167 203 184 128 154 139 146 117 132 202 223 171 146 193 64 38 101 23 219 199 200 183 138 190 205 201 157 161 225 221 262 187 163 143 136 126 308 295 282
137 221 238 218 259 226 177 164 148 183 233 179 166 205 171 187 186 198 115 115 3 157 155 143 225 241 259 241 196 210 199 213 208 222 210 275 242 199 166 165 196 218 301 324 310
145 178 328 290 296 199 173 220 183 158 153 217 201 190 191 180 193 196 141 172 191 160 169 164 258 36 276 266 266 241 231 229 240 234 248 242 239 204 206 111 161 223 282 281 300
124 76 107 296 337 335 235 207 202 137 254 150 189 135 178 182 115 113 71 74 149 152 178 162 172 116 262 324 339 289 234 217 146 75 159 199 209 164 154 159 217 250 259 305 322